START_TIME,STEP,MOV.,M34,t_acc.,L5,t_acc.,L18,t_acc.,L14,t_acc.
1979-07-29 12:00:23.810 ,0,0,0.,12.0,0.,12.0,0.,12.0,0.,12.0
1979-07-29 12:00:35.810 ,0,0,0.,12.0,0.,12.0,0.,12.0,0.,12.0
1979-07-29 12:00:47.810 ,1,1,0.,12.0,0.,12.0,0.,12.0,0.,12.0
1979-07-29 12:00:59.810 ,1,1,0.,12.0,0.,12.0,0.,12.0,0.,12.0
1979-07-29 12:01:11.810 ,1,0,0.,12.0,0.,12.0,0.,12.0,0.,12.0
1979-07-29 12:01:23.810 ,1,0,0.,12.0,0.,12.0,0.,12.0,0.,12.0
1979-07-29 12:01:35.810 ,2,1,0.,12.0,0.,12.0,0.,12.0,0.,12.0
1979-07-29 12:01:47.810 ,2,1,0.,12.0,0.,12.0,0.,12.0,0.,12.0
1979-07-29 12:01:59.810 ,2,0,0.,12.0,0.,12.0,0.,12.0,0.,12.0
1979-07-29 12:02:11.810 ,2,0,0.,12.0,0.,12.0,0.,12.0,0.,12.0
1979-07-29 12:02:23.810 ,3,1,0.,12.0,0.,12.0,0.,12.0,0.,12.0
1979-07-29 12:02:35.810 ,3,1,0.,12.0,0.,12.0,0.,12.0,0.,12.0
1979-07-29 12:02:47.810 ,3,0,0.,12.0,0.,12.0,0.,12.0,0.,12.0
1979-07-29 12:02:59.810 ,3,0,0.,12.0,0.,12.0,0.,12.0,0.,12.0
1979-07-29 12:03:11.810 ,4,1,0.,12.0,0.,12.0,0.,12.0,0.,12.0
1979-07-29 12:03:23.810 ,4,1,0.,12.0,0.,12.0,0.,12.0,0.,12.0
1979-07-29 12:03:35.810 ,4,0,0.,12.0,0.,12.0,0.,12.0,0.,12.0
1979-07-29 12:03:47.810 ,4,0,0.,12.0,0.,12.0,0.,12.0,0.,12.0
1979-07-29 12:03:59.810 ,5,1,0.,12.0,0.,12.0,0.,12.0,0.,12.0
1979-07-29 12:04:11.810 ,5,1,0.,12.0,0.,12.0,0.,12.0,0.,12.0
1979-07-29 12:04:23.810 ,5,0,0.,12.0,0.,12.0,0.,12.0,0.,12.0
1979-07-29 12:04:35.810 ,5,0,0.,12.0,0.,12.0,0.,12.0,0.,12.0
1979-07-29 12:04:47.810 ,6,1,0.,12.0,0.,12.0,0.,12.0,0.,12.0
1979-07-29 12:04:59.810 ,6,1,0.,12.0,0.,12.0,0.,12.0,0.,12.0
1979-07-29 12:05:35.810 ,7,1,0.,12.0,0.,12.0,0.,12.0,0.,12.0
1979-07-29 12:05:47.810 ,7,1,0.,12.0,0.,12.0,0.,12.0,0.,12.0
1979-07-29 12:05:59.810 ,7,0,0.,12.0,0.,12.0,0.,12.0,0.,12.0
1979-07-29 12:06:11.810 ,7,0,0.,12.0,0.,12.0,0.,12.0,0.,12.0
1979-07-29 12:06:23.810 ,7,1,0.,12.0,0.,12.0,0.,12.0,0.,12.0
1979-07-29 12:06:35.810 ,7,1,0.,12.0,0.,12.0,0.,12.0,0.,12.0
1979-07-29 12:06:47.810 ,7,0,0.,12.0,0.,12.0,0.,12.0,0.,12.0
1979-07-29 12:06:59.810 ,7,0,0.,12.0,0.,12.0,0.,12.0,0.,12.0
1979-07-29 12:07:11.810 ,6,1,0.,12.0,0.,12.0,0.,12.0,0.,12.0
1979-07-29 12:07:23.810 ,6,1,0.,12.0,0.,12.0,0.,12.0,0.,12.0
1979-07-29 12:07:35.810 ,6,0,0.,12.0,0.,12.0,0.,12.0,0.,12.0
1979-07-29 12:07:47.810 ,6,0,1.,12.0,0.,12.0,0.,12.0,0.,12.0
1979-07-29 12:07:59.810 ,5,1,0.,12.0,0.,12.0,0.,12.0,0.,12.0
1979-07-29 12:08:11.810 ,5,1,0.,12.0,0.,12.0,0.,12.0,0.,12.0
1979-07-29 12:08:23.810 ,5,0,0.,12.0,0.,12.0,0.,12.0,0.,12.0
1979-07-29 12:08:35.810 ,5,0,0.,12.0,0.,12.0,0.,12.0,0.,12.0
1979-07-29 12:08:47.810 ,4,1,0.,12.0,0.,12.0,0.,12.0,0.,12.0
1979-07-29 12:08:59.810 ,4,1,0.,12.0,0.,12.0,0.,12.0,0.,12.0
1979-07-29 12:09:11.810 ,4,0,0.,12.0,0.,12.0,0.,12.0,0.,12.0
1979-07-29 12:09:23.810 ,4,0,0.,12.0,0.,12.0,0.,12.0,0.,12.0
1979-07-29 12:09:35.810 ,3,1,0.,12.0,0.,12.0,0.,12.0,0.,12.0
1979-07-29 12:09:47.810 ,3,1,0.,12.0,0.,12.0,0.,12.0,0.,12.0
1979-07-29 12:09:59.810 ,3,0,0.,12.0,0.,12.0,0.,12.0,0.,12.0
1979-07-29 12:10:11.810 ,3,0,0.,12.0,0.,12.0,0.,12.0,0.,12.0
1979-07-29 12:10:23.810 ,2,1,0.,12.0,0.,12.0,0.,12.0,0.,12.0
1979-07-29 12:10:35.810 ,2,1,0.,12.0,0.,12.0,0.,12.0,0.,12.0
1979-07-29 12:10:47.810 ,2,0,0.,12.0,0.,12.0,0.,12.0,0.,12.0
1979-07-29 12:10:59.810 ,2,0,1.,12.0,0.,12.0,0.,12.0,0.,12.0
1979-07-29 12:11:11.810 ,1,1,0.,12.0,0.,12.0,0.,12.0,0.,12.0
1979-07-29 12:11:23.810 ,1,1,0.,12.0,0.,12.0,0.,12.0,0.,12.0
1979-07-29 12:11:35.810 ,1,0,0.,12.0,0.,12.0,0.,12.0,0.,12.0
1979-07-29 12:11:47.810 ,1,0,0.,12.0,0.,12.0,0.,12.0,0.,12.0
1979-07-29 12:11:59.810 ,0,1,0.,12.0,0.,12.0,0.,12.0,0.,12.0
1979-07-29 12:12:11.810 ,0,1,0.,12.0,0.,12.0,0.,12.0,0.,12.0
1979-07-29 12:12:23.810 ,0,0,0.,12.0,0.,12.0,0.,12.0,0.,12.0
1979-07-29 12:12:35.810 ,0,0,0.,12.0,0.,12.0,0.,12.0,0.,12.0
1979-07-29 12:12:47.810 ,0,1,1.,12.0,0.,12.0,0.,12.0,0.,12.0
1979-07-29 12:12:59.810 ,0,1,0.,12.0,0.,12.0,0.,12.0,0.,12.0
1979-07-29 12:13:11.810 ,0,0,0.,12.0,0.,12.0,0.,12.0,0.,12.0
1979-07-29 12:13:23.810 ,0,0,0.,12.0,0.,12.0,0.,12.0,0.,12.0
1979-07-29 12:13:35.810 ,1,1,0.,12.0,0.,12.0,0.,12.0,0.,12.0
1979-07-29 12:13:47.810 ,1,1,0.,12.0,0.,12.0,0.,12.0,0.,12.0
1979-07-29 12:13:59.810 ,1,0,0.,12.0,0.,12.0,0.,12.0,0.,12.0
1979-07-29 12:14:11.810 ,1,0,0.,12.0,0.,12.0,0.,12.0,0.,12.0
1979-07-29 12:14:23.810 ,2,1,1.,12.0,0.,12.0,0.,12.0,0.,12.0
1979-07-29 12:14:35.810 ,2,1,0.,12.0,0.,12.0,0.,12.0,0.,12.0
1979-07-29 12:14:47.810 ,2,0,0.,12.0,0.,12.0,0.,12.0,0.,12.0
1979-07-29 12:14:59.810 ,2,0,0.,12.0,0.,12.0,0.,12.0,0.,12.0
1979-07-29 12:15:11.810 ,3,1,0.,12.0,0.,12.0,0.,12.0,0.,12.0
1979-07-29 12:15:23.810 ,3,1,0.,12.0,0.,12.0,0.,12.0,0.,12.0
1979-07-29 12:15:35.810 ,0,0,0.,12.0,0.,12.0,0.,12.0,0.,12.0
1979-07-29 12:15:47.810 ,0,0,0.,12.0,0.,12.0,0.,12.0,0.,12.0
1979-07-29 12:15:59.810 ,4,1,1.,12.0,0.,12.0,0.,12.0,0.,12.0
1979-07-29 12:16:11.810 ,4,1,0.,12.0,0.,12.0,0.,12.0,0.,12.0
1979-07-29 12:16:23.810 ,4,0,0.,12.0,0.,12.0,0.,12.0,0.,12.0
1979-07-29 12:16:35.810 ,4,0,0.,12.0,0.,12.0,0.,12.0,0.,12.0
1979-07-29 12:16:47.810 ,5,1,0.,12.0,0.,12.0,0.,12.0,0.,12.0
1979-07-29 12:16:59.810 ,5,1,0.,12.0,0.,12.0,0.,12.0,0.,12.0
1979-07-29 12:17:11.810 ,5,0,0.,12.0,0.,12.0,0.,12.0,0.,12.0
1979-07-29 12:17:23.810 ,5,0,0.,12.0,0.,12.0,0.,12.0,0.,12.0
1979-07-29 12:17:35.810 ,6,1,0.,12.0,0.,12.0,0.,12.0,0.,12.0
1979-07-29 12:17:47.810 ,6,1,0.,12.0,0.,12.0,0.,12.0,0.,12.0
1979-07-29 12:17:59.810 ,6,0,0.,12.0,0.,12.0,0.,12.0,0.,12.0
1979-07-29 12:18:11.810 ,6,0,0.,12.0,0.,12.0,0.,12.0,0.,12.0
1979-07-29 12:18:23.810 ,7,0,0.,12.0,0.,12.0,0.,12.0,0.,12.0
1979-07-29 12:18:35.810 ,7,0,0.,12.0,0.,12.0,0.,12.0,0.,12.0
1979-07-29 12:18:47.810 ,7,0,0.,12.0,0.,12.0,0.,12.0,0.,12.0
1979-07-29 12:18:59.810 ,7,0,0.,12.0,0.,12.0,0.,12.0,0.,12.0
1979-07-29 12:19:11.810 ,4,1,0.,12.0,0.,12.0,0.,12.0,0.,12.0
1979-07-29 12:19:23.810 ,4,1,0.,12.0,0.,12.0,0.,12.0,0.,12.0
1979-07-29 12:19:35.810 ,0,1,0.,12.0,0.,12.0,0.,12.0,0.,12.0
1979-07-29 12:19:47.810 ,0,1,0.,12.0,0.,12.0,0.,12.0,0.,12.0
1979-07-29 12:19:59.810 ,3,1,0.,12.0,0.,12.0,0.,12.0,0.,12.0
1979-07-29 12:20:11.810 ,3,1,0.,12.0,0.,12.0,0.,12.0,0.,12.0
1979-07-29 12:20:23.810 ,7,1,0.,12.0,0.,12.0,0.,12.0,0.,12.0
1979-07-29 12:20:35.810 ,7,1,0.,12.0,0.,12.0,0.,12.0,0.,12.0
1979-07-29 12:20:47.810 ,4,1,0.,12.0,0.,12.0,0.,12.0,0.,12.0
1979-07-29 12:20:59.810 ,4,1,0.,12.0,0.,12.0,0.,12.0,0.,12.0
1979-07-29 12:21:11.810 ,0,1,0.,12.0,0.,12.0,0.,12.0,0.,12.0
1979-07-29 12:21:23.810 ,0,1,0.,12.0,0.,12.0,0.,12.0,0.,12.0
1979-07-29 12:21:35.810 ,3,1,0.,12.0,0.,12.0,0.,12.0,0.,12.0
1979-07-29 12:21:47.810 ,3,1,0.,12.0,0.,12.0,0.,12.0,0.,12.0
1979-07-29 12:21:59.810 ,7,1,0.,12.0,0.,12.0,0.,12.0,0.,12.0
1979-07-29 12:22:11.810 ,7,1,0.,12.0,0.,12.0,0.,12.0,0.,12.0
1979-07-29 12:22:23.810 ,4,1,0.,12.0,0.,12.0,0.,12.0,0.,12.0
1979-07-29 12:22:35.810 ,4,1,0.,12.0,0.,12.0,0.,12.0,0.,12.0
1979-07-29 12:22:47.810 ,0,1,0.,12.0,0.,12.0,0.,12.0,0.,12.0
1979-07-29 12:22:59.810 ,0,1,0.,12.0,0.,12.0,0.,12.0,0.,12.0
1979-07-29 12:23:11.810 ,3,1,0.,12.0,0.,12.0,0.,12.0,0.,12.0
1979-07-29 12:23:23.810 ,3,1,0.,12.0,0.,12.0,0.,12.0,0.,12.0
1979-07-29 12:23:35.810 ,7,1,0.,12.0,0.,12.0,0.,12.0,0.,12.0
1979-07-29 12:23:47.810 ,7,1,0.,12.0,0.,12.0,0.,12.0,0.,12.0
1979-07-29 12:24:23.810 ,0,1,0.,12.0,0.,12.0,0.,12.0,0.,12.0
1979-07-29 12:24:35.810 ,0,1,0.,12.0,0.,12.0,0.,12.0,0.,12.0
1979-07-29 12:24:47.810 ,3,1,0.,12.0,0.,12.0,0.,12.0,0.,12.0
1979-07-29 12:24:59.810 ,3,1,0.,12.0,0.,12.0,0.,12.0,0.,12.0
1979-07-29 12:25:11.810 ,7,1,0.,12.0,0.,12.0,0.,12.0,0.,12.0
1979-07-29 12:25:23.810 ,7,1,0.,12.0,0.,12.0,0.,12.0,0.,12.0
1979-07-29 12:25:35.810 ,4,1,0.,12.0,0.,12.0,0.,12.0,0.,12.0
1979-07-29 12:25:47.810 ,4,1,0.,12.0,0.,12.0,0.,12.0,0.,12.0
1979-07-29 12:25:59.810 ,0,1,0.,12.0,0.,12.0,0.,12.0,0.,12.0
1979-07-29 12:26:11.810 ,0,1,0.,12.0,0.,12.0,0.,12.0,0.,12.0
1979-07-29 12:26:23.810 ,3,1,0.,12.0,0.,12.0,0.,12.0,0.,12.0
1979-07-29 12:26:35.810 ,3,1,0.,12.0,0.,12.0,0.,12.0,0.,12.0
1979-07-29 12:26:47.810 ,7,1,0.,12.0,0.,12.0,0.,12.0,0.,12.0
1979-07-29 12:26:59.810 ,7,1,0.,12.0,0.,12.0,0.,12.0,0.,12.0
1979-07-29 12:27:11.810 ,4,1,0.,12.0,0.,12.0,0.,12.0,0.,12.0
1979-07-29 12:27:23.810 ,4,1,0.,12.0,0.,12.0,0.,12.0,0.,12.0
1979-07-29 12:27:35.810 ,0,1,0.,12.0,0.,12.0,0.,12.0,0.,12.0
1979-07-29 12:27:47.810 ,0,1,0.,12.0,0.,12.0,0.,12.0,0.,12.0
1979-07-29 12:27:59.810 ,3,1,1.,12.0,0.,12.0,0.,12.0,0.,12.0
1979-07-29 12:28:11.810 ,3,1,0.,12.0,0.,12.0,0.,12.0,0.,12.0
1979-07-29 12:28:23.810 ,7,1,0.,12.0,0.,12.0,0.,12.0,0.,12.0
1979-07-29 12:28:35.810 ,7,1,0.,12.0,0.,12.0,0.,12.0,0.,12.0
1979-07-29 12:28:47.810 ,4,1,0.,12.0,0.,12.0,0.,12.0,0.,12.0
1979-07-29 12:28:59.810 ,4,1,0.,12.0,0.,12.0,0.,12.0,0.,12.0
1979-07-29 12:29:11.810 ,0,1,0.,12.0,0.,12.0,0.,12.0,0.,12.0
1979-07-29 12:29:23.810 ,0,1,0.,12.0,0.,12.0,0.,12.0,0.,12.0
1979-07-29 12:29:35.810 ,0,0,0.,12.0,0.,12.0,0.,12.0,0.,12.0
1979-07-29 12:29:47.810 ,0,0,0.,12.0,0.,12.0,0.,12.0,0.,12.0
1979-07-29 12:29:59.810 ,0,0,0.,12.0,0.,12.0,0.,12.0,0.,12.0
1979-07-29 12:30:11.810 ,0,0,0.,12.0,0.,12.0,0.,12.0,0.,12.0
1979-07-29 12:30:23.810 ,5,1,0.,12.0,0.,12.0,0.,12.0,0.,12.0
1979-07-29 12:30:35.810 ,5,1,0.,12.0,0.,12.0,0.,12.0,0.,12.0
1979-07-29 12:30:47.810 ,5,0,0.,12.0,0.,12.0,0.,12.0,1.,12.0
1979-07-29 12:30:59.810 ,5,0,1.,12.0,0.,12.0,0.,12.0,0.,12.0
1979-07-29 12:31:11.810 ,4,1,0.,12.0,0.,12.0,0.,12.0,0.,12.0
1979-07-29 12:31:23.810 ,4,1,0.,12.0,0.,12.0,0.,12.0,0.,12.0
1979-07-29 12:31:35.810 ,4,0,0.,12.0,0.,12.0,0.,12.0,0.,12.0
1979-07-29 12:31:47.810 ,4,0,0.,12.0,0.,12.0,0.,12.0,0.,12.0
1979-07-29 12:31:59.810 ,3,1,0.,12.0,0.,12.0,0.,12.0,0.,12.0
1979-07-29 12:32:11.810 ,3,1,0.,12.0,0.,12.0,0.,12.0,0.,12.0
1979-07-29 12:32:23.810 ,3,0,0.,12.0,0.,12.0,0.,12.0,0.,12.0
1979-07-29 12:32:35.810 ,3,0,0.,12.0,0.,12.0,0.,12.0,0.,12.0
1979-07-29 12:32:47.810 ,2,1,0.,12.0,0.,12.0,0.,12.0,0.,12.0
1979-07-29 12:32:59.810 ,2,1,0.,12.0,0.,12.0,0.,12.0,0.,12.0
1979-07-29 12:33:11.810 ,2,0,0.,12.0,0.,12.0,0.,12.0,0.,12.0
1979-07-29 12:33:23.810 ,2,0,0.,12.0,0.,12.0,0.,12.0,0.,12.0
1979-07-29 12:33:35.810 ,1,1,0.,12.0,0.,12.0,0.,12.0,0.,12.0
1979-07-29 12:33:47.810 ,1,1,0.,12.0,0.,12.0,0.,12.0,0.,12.0
1979-07-29 12:33:59.810 ,1,0,0.,12.0,0.,12.0,0.,12.0,0.,12.0
1979-07-29 12:34:11.810 ,1,0,0.,12.0,0.,12.0,0.,12.0,0.,12.0
1979-07-29 12:34:23.810 ,0,1,0.,12.0,0.,12.0,0.,12.0,0.,12.0
1979-07-29 12:34:35.810 ,0,1,0.,12.0,0.,12.0,0.,12.0,0.,12.0
1979-07-29 12:34:47.810 ,0,0,0.,12.0,0.,12.0,0.,12.0,0.,12.0
1979-07-29 12:34:59.810 ,0,0,0.,12.0,0.,12.0,0.,12.0,0.,12.0
1979-07-29 12:35:11.810 ,0,1,0.,12.0,0.,12.0,0.,12.0,0.,12.0
1979-07-29 12:35:23.810 ,0,1,0.,12.0,0.,12.0,0.,12.0,0.,12.0
1979-07-29 12:35:35.810 ,0,0,0.,12.0,0.,12.0,0.,12.0,0.,12.0
1979-07-29 12:35:47.810 ,0,0,0.,12.0,0.,12.0,0.,12.0,0.,12.0
1979-07-29 12:35:59.810 ,1,1,0.,12.0,0.,12.0,0.,12.0,0.,12.0
1979-07-29 12:36:11.810 ,1,1,0.,12.0,0.,12.0,0.,12.0,0.,12.0
1979-07-29 12:36:23.810 ,1,0,1.,12.0,0.,12.0,0.,12.0,0.,12.0
1979-07-29 12:36:35.810 ,1,0,0.,12.0,0.,12.0,0.,12.0,0.,12.0
1979-07-29 12:36:47.810 ,2,1,0.,12.0,0.,12.0,0.,12.0,0.,12.0
1979-07-29 12:36:59.810 ,2,1,0.,12.0,0.,12.0,0.,12.0,0.,12.0
1979-07-29 12:37:11.810 ,2,0,0.,12.0,0.,12.0,0.,12.0,0.,12.0
1979-07-29 12:37:23.810 ,2,0,0.,12.0,0.,12.0,0.,12.0,0.,12.0
1979-07-29 12:37:35.810 ,3,1,0.,12.0,0.,12.0,0.,12.0,0.,12.0
1979-07-29 12:37:47.810 ,3,1,0.,12.0,0.,12.0,0.,12.0,0.,12.0
1979-07-29 12:37:59.810 ,3,0,0.,12.0,0.,12.0,0.,12.0,0.,12.0
1979-07-29 12:38:11.810 ,3,0,0.,12.0,0.,12.0,0.,12.0,0.,12.0
1979-07-29 12:38:23.810 ,4,1,0.,12.0,0.,12.0,0.,12.0,0.,12.0
1979-07-29 12:38:35.810 ,4,1,0.,12.0,0.,12.0,0.,12.0,0.,12.0
1979-07-29 12:38:47.810 ,4,0,0.,12.0,0.,12.0,0.,12.0,0.,12.0
1979-07-29 12:38:59.810 ,4,0,0.,12.0,0.,12.0,0.,12.0,0.,12.0
1979-07-29 12:39:11.810 ,5,1,0.,12.0,0.,12.0,0.,12.0,0.,12.0
1979-07-29 12:39:23.810 ,5,1,0.,12.0,0.,12.0,0.,12.0,0.,12.0
1979-07-29 12:39:35.810 ,5,0,0.,12.0,0.,12.0,0.,12.0,0.,12.0
1979-07-29 12:39:47.810 ,5,0,0.,12.0,0.,12.0,0.,12.0,0.,12.0
1979-07-29 12:39:59.810 ,6,1,0.,12.0,0.,12.0,0.,12.0,0.,12.0
1979-07-29 12:40:11.810 ,6,1,0.,12.0,0.,12.0,0.,12.0,0.,12.0
1979-07-29 12:40:23.810 ,6,0,0.,12.0,0.,12.0,0.,12.0,0.,12.0
1979-07-29 12:40:35.810 ,6,0,0.,12.0,0.,12.0,0.,12.0,0.,12.0
1979-07-29 12:40:47.810 ,7,1,0.,12.0,0.,12.0,0.,12.0,0.,12.0
1979-07-29 12:40:59.810 ,7,1,0.,12.0,0.,12.0,0.,12.0,0.,12.0
1979-07-29 12:41:11.810 ,7,0,0.,12.0,0.,12.0,0.,12.0,0.,12.0
1979-07-29 12:41:23.810 ,7,0,0.,12.0,0.,12.0,0.,12.0,0.,12.0
1979-07-29 12:41:35.810 ,7,1,0.,12.0,0.,12.0,0.,12.0,0.,12.0
1979-07-29 12:41:47.810 ,7,1,0.,12.0,0.,12.0,0.,12.0,0.,12.0
1979-07-29 12:41:59.810 ,7,0,0.,12.0,0.,12.0,0.,12.0,0.,12.0
1979-07-29 12:42:11.810 ,7,0,0.,12.0,0.,12.0,0.,12.0,0.,12.0
1979-07-29 12:42:23.810 ,6,1,0.,12.0,0.,12.0,0.,12.0,0.,12.0
1979-07-29 12:42:35.810 ,6,1,0.,12.0,0.,12.0,0.,12.0,0.,12.0
1979-07-29 12:42:47.810 ,6,0,0.,12.0,0.,12.0,0.,12.0,0.,12.0
1979-07-29 12:42:59.810 ,6,0,0.,12.0,0.,12.0,0.,12.0,0.,12.0
1979-07-29 12:43:11.810 ,5,1,0.,12.0,0.,12.0,0.,12.0,0.,12.0
1979-07-29 12:43:23.810 ,5,1,0.,12.0,0.,12.0,0.,12.0,0.,12.0
1979-07-29 12:43:35.810 ,5,0,0.,12.0,0.,12.0,0.,12.0,0.,12.0
1979-07-29 12:43:47.810 ,5,0,0.,12.0,0.,12.0,0.,12.0,0.,12.0
1979-07-29 12:43:59.810 ,4,1,0.,12.0,0.,12.0,0.,12.0,0.,12.0
1979-07-29 12:44:11.810 ,4,1,0.,12.0,0.,12.0,0.,12.0,0.,12.0
1979-07-29 12:44:23.810 ,4,0,0.,12.0,0.,12.0,0.,12.0,0.,12.0
1979-07-29 12:44:35.810 ,4,0,0.,12.0,0.,12.0,0.,12.0,0.,12.0
1979-07-29 12:44:47.810 ,3,1,0.,12.0,0.,12.0,0.,12.0,0.,12.0
1979-07-29 12:44:59.810 ,3,1,0.,12.0,0.,12.0,0.,12.0,0.,12.0
1979-07-29 12:45:11.810 ,3,0,0.,12.0,0.,12.0,0.,12.0,0.,12.0
1979-07-29 12:45:23.810 ,3,0,0.,12.0,0.,12.0,0.,12.0,0.,12.0
1979-07-29 12:45:35.810 ,2,1,0.,12.0,0.,12.0,0.,12.0,0.,12.0
1979-07-29 12:45:47.810 ,2,1,0.,12.0,0.,12.0,0.,12.0,0.,12.0
1979-07-29 12:45:59.810 ,2,0,0.,12.0,0.,12.0,0.,12.0,0.,12.0
1979-07-29 12:46:11.810 ,2,0,0.,12.0,0.,12.0,0.,12.0,0.,12.0
1979-07-29 12:46:23.810 ,1,1,0.,12.0,0.,12.0,0.,12.0,0.,12.0
1979-07-29 12:46:35.810 ,1,1,0.,12.0,0.,12.0,0.,12.0,0.,12.0
1979-07-29 12:46:47.810 ,1,0,0.,12.0,0.,12.0,0.,12.0,0.,12.0
1979-07-29 12:46:59.810 ,1,0,0.,12.0,0.,12.0,0.,12.0,0.,12.0
1979-07-29 12:47:11.810 ,0,1,0.,12.0,0.,12.0,0.,12.0,0.,12.0
1979-07-29 12:47:23.810 ,0,1,0.,12.0,0.,12.0,0.,12.0,0.,12.0
1979-07-29 12:47:35.810 ,0,0,0.,12.0,0.,12.0,0.,12.0,0.,12.0
1979-07-29 12:47:47.810 ,0,0,0.,12.0,0.,12.0,0.,12.0,0.,12.0
1979-07-29 12:47:59.810 ,0,1,0.,12.0,0.,12.0,0.,12.0,0.,12.0
1979-07-29 12:48:11.810 ,0,1,0.,12.0,0.,12.0,0.,12.0,0.,12.0
1979-07-29 12:48:23.810 ,0,0,0.,12.0,0.,12.0,0.,12.0,0.,12.0
1979-07-29 12:48:35.810 ,0,0,0.,12.0,0.,12.0,0.,12.0,0.,12.0
1979-07-29 12:48:47.810 ,1,1,0.,12.0,0.,12.0,0.,12.0,0.,12.0
1979-07-29 12:48:59.810 ,1,1,0.,12.0,0.,12.0,0.,12.0,0.,12.0
1979-07-29 12:49:11.810 ,1,0,0.,12.0,0.,12.0,0.,12.0,0.,12.0
1979-07-29 12:49:23.810 ,1,0,0.,12.0,0.,12.0,0.,12.0,0.,12.0
1979-07-29 12:49:35.810 ,2,1,0.,12.0,0.,12.0,0.,12.0,0.,12.0
1979-07-29 12:49:47.810 ,2,1,0.,12.0,0.,12.0,0.,12.0,0.,12.0
1979-07-29 12:49:59.810 ,2,0,0.,12.0,0.,12.0,0.,12.0,0.,12.0
1979-07-29 12:50:11.810 ,2,0,0.,12.0,0.,12.0,0.,12.0,0.,12.0
1979-07-29 12:50:23.810 ,3,1,0.,12.0,0.,12.0,0.,12.0,0.,12.0
1979-07-29 12:50:35.810 ,3,1,0.,12.0,0.,12.0,0.,12.0,0.,12.0
1979-07-29 12:50:47.810 ,3,0,0.,12.0,0.,12.0,0.,12.0,0.,12.0
1979-07-29 12:50:59.810 ,3,0,0.,12.0,0.,12.0,0.,12.0,0.,12.0
1979-07-29 12:51:11.810 ,4,1,0.,12.0,0.,12.0,0.,12.0,0.,12.0
1979-07-29 12:51:23.810 ,4,1,0.,12.0,0.,12.0,0.,12.0,0.,12.0
1979-07-29 12:51:35.810 ,4,0,0.,12.0,0.,12.0,0.,12.0,0.,12.0
1979-07-29 12:51:47.810 ,4,0,0.,12.0,0.,12.0,0.,12.0,0.,12.0
1979-07-29 12:51:59.810 ,5,1,0.,12.0,0.,12.0,0.,12.0,0.,12.0
1979-07-29 12:52:11.810 ,5,1,0.,12.0,0.,12.0,0.,12.0,0.,12.0
1979-07-29 12:52:23.810 ,5,0,0.,12.0,0.,12.0,0.,12.0,0.,12.0
1979-07-29 12:52:35.810 ,5,0,0.,12.0,0.,12.0,0.,12.0,0.,12.0
1979-07-29 12:52:47.810 ,6,1,0.,12.0,0.,12.0,0.,12.0,0.,12.0
1979-07-29 12:52:59.810 ,6,1,0.,12.0,0.,12.0,0.,12.0,0.,12.0
1979-07-29 12:53:11.810 ,6,0,0.,12.0,0.,12.0,0.,12.0,0.,12.0
1979-07-29 12:53:23.810 ,6,0,0.,12.0,0.,12.0,0.,12.0,0.,12.0
1979-07-29 12:53:35.810 ,7,1,0.,12.0,0.,12.0,0.,12.0,0.,12.0
1979-07-29 12:53:47.810 ,7,1,0.,12.0,0.,12.0,0.,12.0,0.,12.0
1979-07-29 12:53:59.810 ,7,0,0.,12.0,0.,12.0,0.,12.0,0.,12.0
1979-07-29 12:54:11.810 ,7,0,0.,12.0,0.,12.0,0.,12.0,0.,12.0
1979-07-29 12:54:23.810 ,7,1,0.,12.0,0.,12.0,0.,12.0,0.,12.0
1979-07-29 12:54:35.810 ,7,1,0.,12.0,0.,12.0,0.,12.0,0.,12.0
1979-07-29 12:54:47.810 ,7,0,0.,12.0,0.,12.0,0.,12.0,0.,12.0
1979-07-29 12:54:59.810 ,7,0,0.,12.0,0.,12.0,0.,12.0,0.,12.0
1979-07-29 12:55:11.810 ,6,1,0.,12.0,0.,12.0,0.,12.0,0.,12.0
1979-07-29 12:55:23.810 ,6,1,0.,12.0,0.,12.0,0.,12.0,0.,12.0
1979-07-29 12:55:35.810 ,6,0,0.,12.0,0.,12.0,0.,12.0,0.,12.0
1979-07-29 12:55:47.810 ,6,0,0.,12.0,0.,12.0,0.,12.0,0.,12.0
1979-07-29 12:55:59.810 ,5,1,0.,12.0,0.,12.0,0.,12.0,0.,12.0
1979-07-29 12:56:11.810 ,5,1,0.,12.0,0.,12.0,0.,12.0,0.,12.0
1979-07-29 12:56:23.810 ,5,0,0.,12.0,0.,12.0,0.,12.0,0.,12.0
1979-07-29 12:56:35.810 ,5,0,0.,12.0,0.,12.0,0.,12.0,0.,12.0
1979-07-29 12:56:47.810 ,4,1,0.,12.0,0.,12.0,0.,12.0,0.,12.0
1979-07-29 12:56:59.810 ,4,1,0.,12.0,0.,12.0,0.,12.0,0.,12.0
1979-07-29 12:57:11.810 ,4,0,0.,12.0,0.,12.0,0.,12.0,0.,12.0
1979-07-29 12:57:23.810 ,4,0,0.,12.0,0.,12.0,0.,12.0,0.,12.0
1979-07-29 12:57:35.810 ,3,1,0.,12.0,0.,12.0,0.,12.0,0.,12.0
1979-07-29 12:57:47.810 ,3,1,0.,12.0,0.,12.0,0.,12.0,0.,12.0
1979-07-29 12:57:59.810 ,3,0,0.,12.0,0.,12.0,0.,12.0,0.,12.0
1979-07-29 12:58:11.810 ,3,0,0.,12.0,0.,12.0,0.,12.0,0.,12.0
1979-07-29 12:58:23.810 ,2,1,0.,12.0,0.,12.0,0.,12.0,0.,12.0
1979-07-29 12:58:35.810 ,2,1,0.,12.0,0.,12.0,0.,12.0,0.,12.0
1979-07-29 12:58:47.810 ,2,0,0.,12.0,0.,12.0,0.,12.0,0.,12.0
1979-07-29 12:58:59.810 ,2,0,0.,12.0,0.,12.0,0.,12.0,0.,12.0
1979-07-29 12:59:11.810 ,1,1,0.,12.0,0.,12.0,0.,12.0,0.,12.0
1979-07-29 12:59:23.810 ,1,1,0.,12.0,0.,12.0,0.,12.0,0.,12.0
1979-07-29 12:59:35.810 ,1,0,0.,12.0,0.,12.0,0.,12.0,0.,12.0
1979-07-29 12:59:47.810 ,1,0,0.,12.0,0.,12.0,0.,12.0,0.,12.0
1979-07-29 12:59:59.810 ,0,1,0.,12.0,0.,12.0,0.,12.0,0.,12.0
1979-07-29 13:00:11.810 ,0,1,0.,12.0,0.,12.0,0.,12.0,0.,12.0
1979-07-29 13:00:23.810 ,0,0,0.,12.0,0.,12.0,0.,12.0,0.,12.0
1979-07-29 13:00:35.810 ,0,0,0.,12.0,0.,12.0,0.,12.0,0.,12.0
1979-07-29 13:00:47.810 ,0,1,0.,12.0,0.,12.0,0.,12.0,0.,12.0
1979-07-29 13:00:59.810 ,0,1,0.,12.0,0.,12.0,0.,12.0,0.,12.0
1979-07-29 13:01:11.810 ,0,0,0.,12.0,0.,12.0,0.,12.0,0.,12.0
1979-07-29 13:01:23.810 ,0,0,0.,12.0,0.,12.0,0.,12.0,0.,12.0
1979-07-29 13:01:35.810 ,1,1,0.,12.0,0.,12.0,0.,12.0,0.,12.0
1979-07-29 13:01:47.810 ,1,1,0.,12.0,0.,12.0,0.,12.0,0.,12.0
1979-07-29 13:01:59.810 ,1,0,0.,12.0,0.,12.0,0.,12.0,0.,12.0
1979-07-29 13:02:11.810 ,1,0,0.,12.0,0.,12.0,0.,12.0,0.,12.0
1979-07-29 13:02:23.810 ,2,1,0.,12.0,0.,12.0,0.,12.0,0.,12.0
1979-07-29 13:02:35.810 ,2,1,0.,12.0,0.,12.0,0.,12.0,0.,12.0
1979-07-29 13:02:47.810 ,2,0,0.,12.0,0.,12.0,0.,12.0,0.,12.0
1979-07-29 13:02:59.810 ,2,0,0.,12.0,0.,12.0,0.,12.0,0.,12.0
1979-07-29 13:03:11.810 ,3,1,0.,12.0,0.,12.0,0.,12.0,0.,12.0
1979-07-29 13:03:23.810 ,3,1,0.,12.0,0.,12.0,0.,12.0,0.,12.0
1979-07-29 13:03:35.810 ,3,0,0.,12.0,0.,12.0,0.,12.0,0.,12.0
1979-07-29 13:03:47.810 ,3,0,0.,12.0,0.,12.0,0.,12.0,0.,12.0
1979-07-29 13:03:59.810 ,4,1,0.,12.0,0.,12.0,0.,12.0,0.,12.0
1979-07-29 13:04:11.810 ,4,1,0.,12.0,0.,12.0,0.,12.0,0.,12.0
1979-07-29 13:04:23.810 ,4,0,0.,12.0,0.,12.0,0.,12.0,0.,12.0
1979-07-29 13:04:35.810 ,4,0,0.,12.0,0.,12.0,0.,12.0,0.,12.0
1979-07-29 13:04:47.810 ,5,1,0.,12.0,0.,12.0,0.,12.0,0.,12.0
1979-07-29 13:04:59.810 ,5,1,0.,12.0,0.,12.0,0.,12.0,0.,12.0
1979-07-29 13:05:11.810 ,5,0,0.,12.0,0.,12.0,0.,12.0,0.,12.0
1979-07-29 13:05:23.810 ,5,0,0.,12.0,0.,12.0,0.,12.0,0.,12.0
1979-07-29 13:05:35.810 ,6,1,0.,12.0,0.,12.0,0.,12.0,0.,12.0
1979-07-29 13:05:47.810 ,6,1,0.,12.0,0.,12.0,0.,12.0,0.,12.0
1979-07-29 13:05:59.810 ,6,0,0.,12.0,0.,12.0,0.,12.0,0.,12.0
1979-07-29 13:06:11.810 ,6,0,0.,12.0,0.,12.0,0.,12.0,0.,12.0
1979-07-29 13:06:23.810 ,7,0,0.,12.0,0.,12.0,0.,12.0,0.,12.0
1979-07-29 13:06:35.810 ,7,0,0.,12.0,0.,12.0,0.,12.0,0.,12.0
1979-07-29 13:06:47.810 ,7,0,0.,12.0,0.,12.0,0.,12.0,0.,12.0
1979-07-29 13:06:59.810 ,7,0,0.,12.0,0.,12.0,0.,12.0,0.,12.0
1979-07-29 13:07:11.810 ,4,1,0.,12.0,0.,12.0,0.,12.0,0.,12.0
1979-07-29 13:07:23.810 ,4,1,0.,12.0,0.,12.0,0.,12.0,0.,12.0
1979-07-29 13:07:35.810 ,0,1,0.,12.0,0.,12.0,0.,12.0,0.,12.0
1979-07-29 13:07:47.810 ,0,1,0.,12.0,0.,12.0,0.,12.0,0.,12.0
1979-07-29 13:07:59.810 ,3,1,0.,12.0,0.,12.0,0.,12.0,0.,12.0
1979-07-29 13:08:11.810 ,3,1,0.,12.0,0.,12.0,0.,12.0,0.,12.0
1979-07-29 13:08:23.810 ,7,1,0.,12.0,0.,12.0,0.,12.0,0.,12.0
1979-07-29 13:08:35.810 ,7,1,0.,12.0,0.,12.0,0.,12.0,1.,12.0
1979-07-29 13:08:47.810 ,4,1,0.,12.0,0.,12.0,0.,12.0,0.,12.0
1979-07-29 13:08:59.810 ,4,1,0.,12.0,0.,12.0,0.,12.0,0.,12.0
1979-07-29 13:09:11.810 ,0,1,0.,12.0,0.,12.0,0.,12.0,0.,12.0
1979-07-29 13:09:23.810 ,0,1,0.,12.0,0.,12.0,0.,12.0,0.,12.0
1979-07-29 13:09:35.810 ,3,1,0.,12.0,0.,12.0,0.,12.0,0.,12.0
1979-07-29 13:09:47.810 ,3,1,0.,12.0,0.,12.0,0.,12.0,0.,12.0
1979-07-29 13:09:59.810 ,7,1,0.,12.0,0.,12.0,0.,12.0,0.,12.0
1979-07-29 13:10:11.810 ,7,1,0.,12.0,0.,12.0,0.,12.0,0.,12.0
1979-07-29 13:10:23.810 ,4,1,0.,12.0,0.,12.0,0.,12.0,0.,12.0
1979-07-29 13:10:35.810 ,4,1,0.,12.0,0.,12.0,0.,12.0,0.,12.0
1979-07-29 13:10:47.810 ,0,1,0.,12.0,0.,12.0,0.,12.0,0.,12.0
1979-07-29 13:10:59.810 ,0,1,0.,12.0,0.,12.0,0.,12.0,0.,12.0
1979-07-29 13:11:11.810 ,3,1,0.,12.0,0.,12.0,0.,12.0,0.,12.0
1979-07-29 13:11:23.810 ,3,1,0.,12.0,0.,12.0,0.,12.0,0.,12.0
1979-07-29 13:11:35.810 ,7,1,0.,12.0,0.,12.0,0.,12.0,0.,12.0
1979-07-29 13:11:47.810 ,7,1,0.,12.0,0.,12.0,0.,12.0,0.,12.0
1979-07-29 13:11:59.810 ,4,1,0.,12.0,0.,12.0,0.,12.0,0.,12.0
1979-07-29 13:12:11.810 ,4,1,0.,12.0,0.,12.0,0.,12.0,0.,12.0
1979-07-29 13:12:23.810 ,0,1,0.,12.0,0.,12.0,0.,12.0,0.,12.0
1979-07-29 13:12:35.810 ,0,1,0.,12.0,0.,12.0,0.,12.0,0.,12.0
1979-07-29 13:12:47.810 ,3,1,0.,12.0,0.,12.0,0.,12.0,0.,12.0
1979-07-29 13:12:59.810 ,3,1,0.,12.0,0.,12.0,0.,12.0,0.,12.0
1979-07-29 13:13:11.810 ,7,1,0.,12.0,0.,12.0,0.,12.0,0.,12.0
1979-07-29 13:13:23.810 ,7,1,0.,12.0,0.,12.0,0.,12.0,0.,12.0
1979-07-29 13:13:35.810 ,4,1,0.,12.0,0.,12.0,0.,12.0,0.,12.0
1979-07-29 13:13:47.810 ,4,1,0.,12.0,0.,12.0,0.,12.0,0.,12.0
1979-07-29 13:13:59.810 ,0,1,0.,12.0,0.,12.0,0.,12.0,0.,12.0
1979-07-29 13:14:11.810 ,0,1,0.,12.0,0.,12.0,0.,12.0,0.,12.0
1979-07-29 13:14:23.810 ,3,1,0.,12.0,0.,12.0,0.,12.0,0.,12.0
1979-07-29 13:14:35.810 ,3,1,0.,12.0,0.,12.0,0.,12.0,0.,12.0
1979-07-29 13:14:47.810 ,7,1,0.,12.0,0.,12.0,0.,12.0,0.,12.0
1979-07-29 13:14:59.810 ,7,1,0.,12.0,0.,12.0,0.,12.0,0.,12.0
1979-07-29 13:15:11.810 ,4,1,0.,12.0,0.,12.0,0.,12.0,0.,12.0
1979-07-29 13:15:23.810 ,4,1,0.,12.0,0.,12.0,0.,12.0,0.,12.0
1979-07-29 13:15:35.810 ,0,1,0.,12.0,0.,12.0,0.,12.0,0.,12.0
1979-07-29 13:15:47.810 ,0,1,0.,12.0,0.,12.0,0.,12.0,0.,12.0
1979-07-29 13:15:59.810 ,3,1,0.,12.0,0.,12.0,0.,12.0,0.,12.0
1979-07-29 13:16:11.810 ,3,1,0.,12.0,0.,12.0,0.,12.0,0.,12.0
1979-07-29 13:16:23.810 ,7,1,0.,12.0,0.,12.0,0.,12.0,0.,12.0
1979-07-29 13:16:35.810 ,7,1,0.,12.0,0.,12.0,0.,12.0,0.,12.0
1979-07-29 13:16:47.810 ,4,1,0.,12.0,0.,12.0,0.,12.0,0.,12.0
1979-07-29 13:16:59.810 ,4,1,0.,12.0,0.,12.0,0.,12.0,0.,12.0
1979-07-29 13:17:11.810 ,0,1,0.,12.0,0.,12.0,0.,12.0,0.,12.0
1979-07-29 13:17:23.810 ,0,1,0.,12.0,0.,12.0,0.,12.0,0.,12.0
1979-07-29 13:17:35.810 ,0,0,0.,12.0,0.,12.0,0.,12.0,0.,12.0
1979-07-29 13:17:47.810 ,0,0,0.,12.0,0.,12.0,0.,12.0,0.,12.0
1979-07-29 13:17:59.810 ,0,0,0.,12.0,0.,12.0,0.,12.0,0.,12.0
1979-07-29 13:18:11.810 ,0,0,0.,12.0,0.,12.0,0.,12.0,0.,12.0